{"data":{"norad_id":49083,"epoch":"2026-05-25T01:52:32.045088Z","epoch_age_seconds":75135,"freshness":"FRESH","line1":"1 49083U 21075J   26145.07814867 -.00000351  00000+0 -10124-2 0  9998","line2":"2 49083  87.8959 355.2544 0001480  91.4235 268.7063 13.12442965231541","mean_motion":13.12442965,"eccentricity":0.000148,"inclination_deg":87.8959,"raan_deg":355.2544,"arg_perigee_deg":91.4235,"mean_anomaly_deg":268.7063,"bstar":-0.0010124,"rev_number":23154,"period_min":109.71905358188,"perigee_km":1212.599830677,"apogee_km":1214.8470213631,"semimajor_km":7591.86042602,"source":"CELESTRAK","updated_at":"2026-05-25T13:38:22.482210Z"}}